Wetbulb
64.72 64.53 64.70 63.71 63.52 65.19 66.15 65.86 65.01 64.18 63.58 63.09 63.02 62.98 62.95 63.10 63.81 64.06 64.64 66.54 67.71 68.26 68.27 69.19 69.54 69.40 69.25 70.37 71.07 71.15 71.69 71.23 70.36 70.90 70.95 70.24 70.13 70.05 70.23 70.25 70.09 69.59 69.55
64.48 63.92 63.42 62.99 62.97 63.88 64.46 64.74 63.90 62.92 62.55 62.64 62.71 63.13 63.48 63.64 63.86 65.78 65.06 65.35 66.64 68.25 68.59 68.96 69.83 69.64 69.02 68.45 69.91 70.96 71.20 70.85 71.08 70.90 70.97 69.79 69.69 69.93 69.73 69.47 69.68 69.88 69.50
63.96 63.62 63.21 62.49 63.51 63.61 63.78 63.19 63.11 62.81 62.19 62.07 62.29 62.91 63.09 63.90 64.09 64.38 63.91 64.84 65.76 67.26 68.37 69.03 69.47 69.28 68.86 68.64 68.63 69.16 71.09 70.88 70.73 71.22 69.35 69.14 69.27 69.66 69.91 69.50 69.59 69.52 68.95
64.22 63.51 62.72 63.11 63.81 63.24 63.19 62.76 62.53 61.97 61.84 61.55 61.44 62.03 62.09 62.19 62.67 63.41 64.05 64.60 64.96 65.10 66.55 68.81 69.08 68.88 68.66 68.66 69.23 69.16 70.56 70.61 70.26 70.59 69.36 69.73 69.14 69.31 68.95 69.22 68.60 69.19 68.99
65.00 63.75 63.39 63.46 63.63 62.90 62.32 62.34 61.82 62.08 61.23 61.16 61.27 61.43 61.99 61.88 62.03 62.51 63.09 63.78 64.10 66.00 65.65 67.78 68.44 68.83 69.01 68.58 68.88 69.41 70.17 70.62 70.16 70.17 69.83 69.96 69.03 69.25 68.67 67.68 68.64 69.12 68.70
65.04 64.09 63.94 63.58 63.33 62.68 62.17 61.91 61.61 61.16 61.30 61.00 60.64 60.96 61.21 61.24 61.62 61.15 62.06 62.78 63.37 64.53 65.09 64.27 66.58 66.83 67.79 68.33 68.97 69.00 69.22 69.77 70.24 70.39 70.10 69.16 68.94 69.20 68.15 68.45 69.04 68.64 67.65
65.13 64.64 64.17 63.53 62.86 62.57 62.37 61.68 61.34 61.04 60.09 61.17 59.65 58.98 59.48 60.74 60.35 60.63 61.36 61.50 62.30 63.81 64.14 63.59 64.84 65.01 65.44 67.67 68.38 69.20 69.12 69.18 70.63 70.20 69.91 68.77 68.85 68.66 67.82 68.70 68.53 66.71 64.04
65.47 64.66 63.82 62.91 62.65 61.90 61.82 61.09 61.82 59.20 59.49 60.08 57.94 56.56 55.46 57.81 60.05 60.49 60.14 60.90 61.47 62.97 63.62 63.76 64.10 64.40 65.17 65.49 66.91 68.78 69.20 69.20 69.59 70.07 69.45 68.42 68.17 68.88 68.00 68.26 67.52 64.25 62.70
65.53 64.76 63.48 62.86 62.03 62.38 61.44 60.79 60.33 59.34 58.10 58.19 58.63 57.12 53.54 52.84 55.98 59.75 59.38 60.85 61.20 61.67 62.84 62.85 62.98 64.29 64.62 65.11 65.68 67.46 69.48 69.40 69.10 69.42 69.30 68.37 68.30 68.24 66.98 64.83 63.63 63.61 62.45
64.26 63.38 63.24 62.60 62.10 62.10 60.99 60.53 60.02 59.02 58.08 56.68 57.95 57.87 57.47 56.82 54.43 53.97 57.40 59.06 60.69 60.67 60.75 61.97 63.23 63.83 64.78 65.00 65.36 66.64 67.69 68.37 69.11 69.37 69.60 68.37 68.40 68.39 65.67 63.13 64.27 62.41 63.22
63.28 63.23 62.59 62.72 62.14 60.92 60.58 60.08 59.85 58.89 58.69 57.78 57.14 56.38 56.64 57.28 57.40 56.28 53.40 55.35 58.74 59.86 60.89 61.36 62.24 63.29 64.27 64.67 65.16 65.69 65.60 66.40 67.04 67.87 68.32 68.07 68.57 67.24 65.80 64.40 64.01 64.85 63.36
61.67 62.39 63.03 62.10 61.48 60.58 60.40 60.12 60.26 59.86 59.11 58.66 57.94 57.58 57.10 56.46 56.38 56.42 54.90 53.84 55.10 58.40 60.13 61.34 61.92 62.77 63.90 64.60 64.76 64.53 64.32 64.15 63.67 64.65 65.71 66.69 66.01 65.03 63.76 63.27 63.09 62.34 63.81
59.66 60.73 61.56 60.73 60.29 60.54 60.50 60.49 60.00 60.00 59.79 58.99 58.68 58.13 58.06 57.82 58.54 58.91 56.18 54.25 55.72 57.60 58.86 61.21 62.31 63.32 64.70 64.22 65.37 65.33 65.10 62.58 62.09 62.19 63.19 63.65 63.17 62.98 62.99 63.17 64.26 64.25 64.36
60.26 60.72 60.89 60.99 60.71 60.61 60.76 60.64 60.65 60.78 60.58 60.01 59.48 58.68 58.72 58.59 57.82 58.66 56.86 56.54 54.55 56.10 57.92 59.06 62.93 64.09 65.20 65.23 64.12 64.02 65.17 61.70 61.44 60.91 61.52 61.71 61.66 62.91 63.57 63.31 63.54 63.41 63.45
60.49 60.83 61.16 60.56 60.26 60.88 61.21 61.02 60.59 60.50 60.22 60.36 59.86 59.84 58.99 59.22 58.72 58.58 59.27 59.08 57.48 53.99 55.10 58.96 59.90 64.16 64.93 65.73 65.03 63.64 63.62 61.64 61.42 60.06 60.33 60.35 60.44 60.76 60.80 60.86 61.08 61.57 61.95
60.92 60.07 60.10 60.68 61.20 61.78 61.73 61.75 61.17 61.28 60.59 60.52 60.36 59.51 59.06 59.46 58.76 58.62 58.68 58.60 58.98 56.80 54.86 59.80 59.31 62.10 64.03 62.77 63.89 63.71 62.58 61.55 60.00 59.84 60.06 59.10 58.34 58.69 58.79 58.42 57.80 59.72 60.53
59.53 60.14 60.43 61.21 61.58 61.79 61.17 60.79 60.92 61.03 60.81 60.14 60.52 60.00 59.90 59.83 59.46 58.72 58.44 58.78 58.68 58.32 55.89 57.95 60.13 62.31 61.24 60.67 60.52 61.54 62.03 61.28 60.40 59.24 59.04 57.70 56.72 56.94 57.42 57.36 57.29 58.53 59.15
60.09 60.59 61.16 61.51 61.99 61.54 60.99 60.40 60.24 61.20 60.55 59.35 59.77 59.25 59.17 59.63 59.42 60.13 59.67 58.62 58.90 59.46 58.38 56.38 58.51 59.52 59.41 60.31 59.77 59.73 59.79 60.22 59.75 58.79 57.55 56.68 55.42 54.71 54.95 54.81 55.06 55.58 55.36
60.01 60.55 60.24 60.31 61.38 61.75 61.32 61.23 60.57 61.07 60.26 59.66 59.63 59.32 59.09 59.65 59.70 59.65 59.39 58.99 59.28 59.65 59.67 57.43 56.90 58.47 58.29 58.93 58.03 58.51 58.29 58.49 58.72 58.51 56.20 55.18 54.50 54.23 54.02 53.53 53.02 52.96 52.01
58.96 60.05 60.54 62.04 61.70 61.14 60.54 60.97 62.46 61.40 59.94 59.65 59.95 59.30 59.01 60.70 59.62 59.84 59.44 59.02 59.80 59.21 58.45 57.60 56.56 56.24 56.50 57.16 57.18 55.38 54.99 56.82 56.24 57.72 56.98 55.38 54.63 53.20 52.68 52.88 53.57 52.58 50.40
60.05 61.50 61.87 60.48 59.93 58.80 55.90 58.61 61.54 60.28 59.48 59.52 60.47 60.19 60.76 60.86 58.95 59.10 59.62 59.30 59.43 58.36 57.51 55.88 54.95 54.81 54.81 55.01 54.78 55.48 54.53 54.89 55.23 55.80 55.01 55.01 55.08 55.64 55.26 54.34 55.12 52.75 49.61
61.34 61.76 60.18 59.25 58.29 56.37 46.40 51.76 57.82 60.61 60.15 60.09 60.20 60.54 60.21 57.86 56.38 54.43 55.28 55.30 58.34 57.98 56.14 55.80 54.90 54.10 54.83 55.03 55.26 54.82 54.09 53.07 51.05 56.02 53.71 51.18 55.05 52.59 53.27 54.36 50.29 48.64 47.74
60.94 60.41 58.53 57.57 56.90 56.60 45.60 50.31 52.31 60.22 60.45 59.99 59.31 59.31 58.91 57.90 57.42 57.11 52.18 52.46 52.59 52.15 55.40 57.66 55.33 55.31 54.66 55.42 55.28 54.36 54.60 54.02 53.17 53.97 53.75 49.58 51.88 50.40 49.14 50.31 47.71 46.79 46.25
60.43 59.35 57.31 56.60 57.19 54.64 46.51 47.41 51.04 61.02 61.03 60.04 59.25 58.85 57.96 58.01 57.46 57.88 58.18 57.68 57.85 58.30 58.26 58.50 57.91 56.93 57.09 56.84 56.50 55.48 54.55 54.41 54.09 53.40 54.81 50.34 48.07 46.22 47.20 48.29 46.80 45.92 45.00
58.21 57.70 57.24 56.68 57.61 56.24 46.14 47.23 56.50 60.63 59.55 58.89 59.47 59.14 58.97 57.76 48.30 49.41 57.19 55.80 55.50 54.59 51.12 49.89 49.17 47.58 46.69 48.50 53.18 55.40 54.07 53.03 51.67 52.61 51.48 51.34 47.53 46.90 46.62 46.65 47.21 45.64 44.23
58.60 58.23 56.71 57.18 53.55 57.48 45.78 46.87 56.32 60.40 58.51 57.80 57.36 56.26 49.77 53.25 46.14 47.96 57.31 56.66 54.90 55.18 55.76 55.86 54.67 51.65 52.91 51.57 51.21 56.40 55.75 53.06 52.90 52.28 53.03 50.24 47.62 47.46 47.25 46.45 46.73 47.60 46.95
MSLP
1009.27 1009.61 1010.63 1010.62 1010.85 1011.06 1011.34 1011.90 1012.25 1012.43 1012.42 1012.50 1012.70 1012.83 1012.84 1012.97 1013.13 1013.12 1013.13 1013.17 1013.09 1013.24 1013.31 1013.30 1013.27 1013.62 1013.80 1013.97 1014.12 1014.40 1014.62 1014.98 1015.37 1015.67 1016.07 1016.44 1016.81 1017.14 1017.41 1017.68 1018.09 1018.45 1018.86
1008.35 1009.34 1009.89 1010.34 1010.61 1010.70 1011.19 1011.55 1011.94 1012.17 1012.16 1012.33 1012.46 1012.49 1012.49 1012.62 1012.74 1012.77 1012.78 1012.84 1012.88 1012.89 1012.95 1012.97 1013.07 1013.29 1013.54 1013.76 1013.91 1014.26 1014.56 1014.76 1015.16 1015.51 1015.76 1016.21 1016.72 1017.15 1017.45 1017.67 1017.95 1018.39 1018.84
1008.35 1008.89 1009.27 1010.01 1010.22 1010.79 1010.96 1011.62 1011.82 1011.96 1012.06 1012.13 1012.24 1012.22 1012.25 1012.24 1012.39 1012.45 1012.54 1012.55 1012.59 1012.58 1012.56 1012.55 1012.78 1012.99 1013.25 1013.52 1013.73 1014.01 1014.45 1014.72 1014.96 1015.24 1015.40 1016.03 1016.57 1017.05 1017.37 1017.64 1017.98 1018.39 1018.87
1007.59 1008.42 1009.20 1010.09 1010.31 1010.67 1011.28 1011.52 1011.67 1011.83 1011.96 1012.04 1012.07 1012.15 1012.15 1012.21 1012.23 1012.22 1012.22 1012.32 1012.30 1012.30 1012.28 1012.32 1012.58 1012.85 1013.17 1013.36 1013.51 1013.81 1014.20 1014.56 1014.86 1014.98 1015.41 1015.88 1016.34 1016.86 1017.35 1017.52 1017.91 1018.43 1019.05
1007.34 1007.88 1008.56 1009.43 1010.01 1010.35 1011.04 1011.30 1011.52 1011.61 1011.71 1011.83 1011.97 1012.07 1012.01 1012.09 1012.06 1011.94 1012.09 1012.07 1012.14 1012.07 1012.11 1012.11 1012.37 1012.65 1012.90 1013.17 1013.30 1013.51 1013.86 1014.34 1014.67 1014.87 1015.25 1015.66 1016.26 1016.84 1017.21 1017.62 1017.88 1018.47 1019.10
1006.67 1007.29 1007.45 1007.91 1008.23 1010.09 1010.76 1011.09 1011.21 1011.39 1011.57 1011.67 1011.84 1011.81 1011.72 1011.71 1011.78 1011.94 1011.88 1011.78 1011.94 1011.99 1012.19 1012.32 1012.39 1012.61 1012.82 1013.03 1013.19 1013.37 1013.63 1014.05 1014.46 1014.66 1015.04 1015.41 1016.10 1016.73 1017.23 1017.72 1017.81 1018.70 1019.30
1006.15 1006.87 1007.92 1008.65 1008.51 1009.42 1010.15 1010.56 1010.92 1011.38 1011.61 1011.55 1011.69 1011.51 1011.41 1011.43 1011.51 1011.63 1011.74 1011.74 1011.83 1011.78 1012.08 1012.41 1012.61 1012.68 1012.91 1012.94 1013.15 1013.40 1013.57 1013.87 1014.27 1014.50 1014.91 1015.57 1016.19 1016.71 1017.31 1017.66 1018.31 1018.94 1019.76
1006.19 1006.57 1007.04 1007.89 1008.44 1009.18 1009.80 1010.24 1010.76 1011.12 1011.20 1011.32 1011.51 1011.73 1011.60 1011.43 1011.31 1011.46 1011.56 1011.63 1011.71 1011.78 1011.94 1012.16 1012.36 1012.63 1012.83 1012.94 1013.09 1013.29 1013.56 1013.81 1014.06 1014.33 1014.85 1015.67 1016.24 1016.72 1016.89 1017.77 1018.16 1019.10 1019.59
1005.89 1006.30 1006.89 1007.57 1008.21 1008.75 1009.32 1009.92 1010.37 1010.71 1010.98 1011.27 1011.30 1011.43 1011.67 1011.51 1011.47 1011.50 1011.43 1011.69 1011.80 1011.90 1012.14 1012.18 1012.38 1012.55 1012.77 1012.90 1013.05 1013.20 1013.45 1013.73 1013.97 1014.28 1014.84 1015.45 1016.27 1016.90 1017.66 1018.52 1019.13 1019.57 1020.31
1005.76 1006.28 1006.85 1007.38 1008.01 1008.50 1009.11 1009.56 1009.90 1010.26 1010.65 1010.92 1011.29 1011.32 1011.30 1011.30 1011.47 1011.62 1011.61 1011.61 1011.78 1011.94 1012.09 1012.14 1012.13 1012.36 1012.62 1012.82 1012.96 1013.06 1013.32 1013.66 1013.89 1014.18 1014.91 1015.42 1016.40 1017.21 1018.25 1019.20 1018.97 1019.79 1020.29
1005.92 1006.47 1006.89 1007.27 1007.78 1008.35 1008.82 1009.17 1009.59 1009.96 1010.22 1010.41 1010.66 1011.05 1011.40 1011.38 1011.40 1011.45 1011.88 1011.88 1012.06 1012.22 1012.22 1012.13 1012.11 1012.26 1012.48 1012.66 1012.84 1012.97 1013.26 1013.52 1013.74 1014.17 1014.86 1015.46 1016.06 1017.11 1017.83 1018.62 1019.36 1019.97 1020.41
1006.08 1006.46 1006.74 1007.16 1007.67 1008.17 1008.67 1008.94 1009.22 1009.54 1009.80 1010.00 1010.27 1010.54 1010.73 1011.08 1011.19 1011.38 1011.74 1012.20 1012.20 1012.39 1012.27 1012.20 1012.24 1012.35 1012.39 1012.52 1012.66 1012.84 1012.98 1013.25 1013.69 1014.13 1014.98 1015.73 1016.38 1017.26 1018.22 1018.88 1019.74 1020.54 1020.94
1006.32 1006.58 1006.82 1007.21 1007.73 1008.19 1008.38 1008.62 1008.94 1009.15 1009.31 1009.64 1009.87 1010.16 1010.39 1010.58 1010.74 1010.91 1011.27 1012.01 1012.21 1012.49 1012.53 1012.37 1012.33 1012.27 1012.35 1012.43 1012.55 1012.68 1012.81 1013.16 1013.61 1014.23 1015.26 1015.95 1016.85 1017.73 1018.36 1019.07 1019.87 1020.46 1020.74
1006.10 1006.41 1006.76 1007.25 1007.70 1007.91 1008.11 1008.41 1008.68 1008.80 1009.07 1009.32 1009.46 1009.73 1009.91 1010.25 1010.51 1010.55 1010.85 1011.48 1012.24 1012.38 1012.55 1012.51 1012.45 1012.34 1012.28 1012.43 1012.56 1012.84 1012.97 1013.25 1013.72 1014.48 1015.46 1016.35 1017.31 1017.92 1018.73 1019.30 1019.91 1020.49 1021.09
1006.07 1006.40 1006.82 1007.23 1007.55 1007.74 1007.96 1008.28 1008.49 1008.64 1008.71 1008.86 1009.02 1009.26 1009.55 1009.74 1010.08 1010.31 1010.55 1010.91 1011.37 1012.03 1012.44 1012.58 1012.46 1012.36 1012.30 1012.38 1012.64 1012.88 1013.06 1013.50 1014.11 1014.91 1015.71 1016.67 1017.54 1018.12 1018.91 1019.55 1020.38 1021.02 1021.39
1006.00 1006.42 1006.88 1007.22 1007.39 1007.51 1007.78 1007.90 1008.09 1008.30 1008.39 1008.55 1008.73 1008.89 1009.16 1009.35 1009.66 1009.98 1010.40 1010.65 1010.92 1011.25 1012.10 1012.42 1012.67 1012.60 1012.53 1012.74 1012.90 1013.06 1013.42 1013.92 1014.59 1015.38 1016.22 1017.01 1018.02 1018.57 1019.65 1020.05 1020.82 1021.38 1021.58
1006.06 1006.53 1006.87 1007.04 1007.14 1007.34 1007.48 1007.57 1007.76 1007.95 1008.10 1008.26 1008.43 1008.46 1008.67 1008.91 1009.22 1009.56 1010.14 1010.53 1010.81 1011.11 1011.74 1012.49 1012.71 1012.80 1013.09 1013.32 1013.56 1013.77 1014.09 1014.71 1015.43 1016.14 1016.67 1017.80 1018.82 1019.57 1020.26 1020.79 1021.32 1021.55 1021.84
1006.19 1006.51 1006.73 1006.86 1006.95 1007.00 1007.20 1007.32 1007.40 1007.52 1007.75 1007.93 1008.15 1008.15 1008.46 1008.78 1008.99 1009.24 1009.75 1010.28 1010.68 1010.95 1011.29 1012.23 1012.72 1013.08 1013.44 1013.93 1014.20 1014.49 1015.03 1015.75 1016.42 1017.15 1018.05 1018.59 1019.50 1020.15 1020.76 1021.34 1021.64 1021.89 1022.36
1006.28 1006.56 1006.62 1006.72 1006.81 1006.97 1007.16 1007.18 1007.12 1007.15 1007.28 1007.62 1007.82 1008.07 1008.37 1008.65 1009.06 1009.36 1009.70 1010.16 1010.61 1010.98 1011.46 1012.17 1012.94 1013.37 1013.91 1014.33 1014.76 1015.50 1016.06 1016.76 1017.49 1018.11 1019.03 1019.80 1020.49 1020.87 1021.47 1021.74 1022.12 1022.50 1022.84
1006.27 1006.39 1006.47 1006.64 1006.81 1007.13 1007.15 1007.06 1006.82 1006.97 1007.31 1007.59 1007.78 1007.88 1008.19 1008.45 1008.86 1009.26 1009.71 1010.10 1010.50 1011.06 1011.84 1012.46 1013.17 1013.75 1014.30 1014.96 1015.31 1016.03 1017.07 1017.62 1018.47 1019.31 1020.07 1020.58 1021.06 1021.57 1022.00 1022.35 1022.65 1022.89 1023.17
1006.11 1006.19 1006.47 1006.78 1007.06 1007.30 1007.48 1007.30 1007.02 1007.05 1007.37 1007.64 1007.81 1007.87 1008.05 1008.44 1008.81 1009.18 1009.57 1009.94 1010.31 1010.99 1011.83 1012.64 1013.41 1014.03 1014.69 1015.15 1015.36 1016.52 1017.24 1018.27 1019.27 1019.91 1020.57 1021.21 1021.66 1022.03 1022.60 1022.85 1023.00 1023.30 1023.60
1006.10 1006.30 1006.66 1007.02 1007.28 1007.57 1007.74 1007.44 1007.23 1007.39 1007.56 1007.66 1007.81 1008.02 1008.35 1008.78 1009.19 1009.50 1009.74 1010.09 1010.31 1010.82 1011.64 1012.52 1013.41 1014.14 1014.63 1015.44 1016.12 1016.74 1017.45 1018.53 1019.71 1020.49 1020.93 1021.81 1021.91 1022.48 1022.97 1023.21 1023.44 1023.60 1023.86
1006.13 1006.43 1006.93 1007.27 1007.54 1007.83 1007.84 1007.65 1007.54 1007.72 1007.76 1007.79 1007.89 1008.18 1008.58 1009.09 1009.42 1009.90 1010.25 1010.62 1011.02 1011.53 1011.94 1012.26 1012.99 1013.90 1014.75 1015.43 1016.00 1017.12 1017.89 1018.62 1019.38 1020.41 1020.70 1022.15 1022.57 1023.17 1023.56 1023.62 1023.82 1023.96 1024.26
1006.35 1006.73 1007.22 1007.55 1007.79 1008.11 1008.00 1007.90 1007.80 1007.92 1008.04 1008.20 1008.30 1008.54 1008.82 1009.26 1009.85 1010.15 1010.56 1011.17 1011.69 1012.21 1012.68 1013.07 1013.69 1014.44 1015.14 1015.93 1016.36 1017.26 1018.13 1019.02 1020.08 1020.65 1020.98 1022.16 1023.11 1023.58 1023.85 1024.10 1024.38 1024.41 1024.64
1006.66 1007.00 1007.44 1007.74 1007.93 1008.24 1008.27 1008.08 1008.02 1008.12 1008.33 1008.54 1008.67 1008.96 1009.28 1009.71 1010.12 1010.48 1010.98 1011.62 1012.35 1013.16 1013.39 1013.80 1014.45 1015.28 1015.92 1016.51 1016.93 1017.63 1018.60 1019.05 1020.19 1020.96 1021.47 1021.82 1023.00 1023.38 1023.84 1024.00 1024.31 1024.59 1024.77
1006.82 1007.30 1007.70 1007.92 1008.07 1008.30 1008.48 1008.36 1008.31 1008.39 1008.65 1008.98 1009.26 1009.58 1009.73 1010.11 1010.58 1010.87 1011.44 1011.92 1012.67 1013.48 1014.03 1014.77 1015.60 1016.18 1016.49 1017.14 1017.54 1017.79 1018.07 1018.73 1019.57 1020.87 1021.38 1021.84 1022.73 1022.98 1023.38 1023.92 1024.09 1024.41 1024.72
Wind_Speed
8 6 5 5 5 3 4 4 4 4 4 4 4 6 6 6 6 4 4 10 12 12 14 14 12 13 11 10 10 11 12 11 14 13 12 12 9 7 6 11 14 13 13
9 8 7 6 4 4 3 4 4 4 4 3 5 6 7 6 5 5 3 4 10 11 14 14 15 14 12 10 9 10 10 12 13 13 14 14 11 8 7 8 11 13 14
8 9 7 6 4 3 4 2 3 3 3 3 6 5 5 6 4 4 4 4 4 10 12 11 11 11 11 11 10 10 10 11 11 13 15 14 13 10 8 7 8 12 15
11 8 5 3 3 4 3 3 3 3 3 3 3 3 3 3 5 5 4 3 4 4 8 12 12 12 11 10 11 11 11 10 10 14 11 14 15 12 8 9 10 15 19
12 8 6 5 4 3 4 4 3 3 2 3 4 4 4 4 6 3 5 5 6 3 4 9 11 10 8 10 11 11 11 10 10 11 9 15 13 11 10 9 12 18 21
11 10 10 9 8 4 4 3 4 2 2 3 3 4 4 5 4 4 5 4 4 4 3 3 3 4 8 8 9 10 9 10 10 10 11 12 15 15 9 10 16 19 23
12 10 5 6 7 8 6 4 2 4 4 3 1 2 2 5 4 3 3 4 4 4 4 4 3 2 3 7 9 8 9 10 12 9 11 11 11 12 12 11 20 26 24
10 10 8 7 7 5 5 5 6 3 2 4 2 0 2 1 2 3 2 3 4 2 4 5 5 5 3 3 6 9 9 9 9 9 12 15 15 13 10 14 25 26 24
9 8 8 7 6 5 5 4 6 7 3 2 4 2 1 2 0 1 2 1 3 2 2 3 5 5 5 4 5 7 9 7 6 10 13 16 15 14 24 25 25 25 21
7 7 7 6 6 4 4 4 4 3 3 3 2 3 1 1 1 1 2 2 2 2 3 3 3 4 5 4 7 8 9 9 8 10 15 16 21 25 27 26 25 25 23
6 6 7 7 6 4 4 4 4 5 4 3 2 2 1 0 1 1 2 1 1 1 0 2 2 2 4 5 4 5 8 8 10 13 17 18 23 29 27 28 24 21 21
3 5 6 5 4 4 4 4 4 5 5 3 3 3 3 3 3 2 2 1 1 0 1 2 2 2 2 4 5 7 8 10 9 13 16 23 28 29 28 26 23 20 20
2 4 4 5 3 4 5 4 4 5 5 4 5 4 3 3 2 2 3 2 2 1 1 2 2 2 1 2 2 7 9 9 13 15 17 26 26 24 25 26 24 22 20
4 5 4 4 4 4 4 4 3 3 4 4 6 5 4 4 3 3 3 4 2 2 2 2 1 1 2 2 3 4 5 11 16 18 22 24 24 24 23 22 20 18 16
4 5 5 4 4 5 4 4 3 4 4 5 5 5 5 4 4 4 2 3 4 4 2 1 1 1 2 2 5 4 6 15 20 18 22 20 19 18 18 17 15 14 13
5 5 4 4 4 3 3 4 3 4 4 3 3 5 5 3 5 4 3 3 2 3 4 1 1 1 3 5 6 7 9 18 26 24 25 24 23 20 19 19 14 10 13
6 5 5 4 3 3 3 3 4 4 4 3 4 5 4 5 4 4 4 2 3 3 6 2 1 3 5 8 8 9 10 12 15 26 24 24 21 19 17 16 10 9 10
4 5 4 3 3 2 2 3 3 4 5 6 5 4 4 3 4 5 4 6 5 3 5 6 2 2 6 9 10 12 10 9 13 23 24 22 19 17 15 11 7 11 11
4 3 3 3 3 1 2 2 4 5 5 7 5 4 5 5 5 3 4 6 6 5 7 5 4 3 4 8 11 10 11 11 10 24 21 17 16 14 11 10 10 11 12
5 4 4 4 3 3 3 4 2 4 5 4 4 4 5 7 8 8 7 8 9 9 8 8 7 7 7 7 11 11 10 10 11 9 11 11 12 13 10 10 11 11 12
3 4 6 5 4 3 3 4 3 4 5 4 3 3 4 7 8 7 7 9 11 10 9 8 8 8 8 8 13 8 11 11 8 6 8 6 6 5 6 8 9 12 12
4 5 5 4 4 3 6 4 4 5 5 4 4 4 5 8 8 9 10 9 9 12 13 8 8 10 9 9 10 11 14 10 6 3 6 4 3 5 4 4 7 10 12
4 5 5 4 4 3 5 5 6 5 4 4 5 6 6 6 8 8 12 13 12 11 9 12 13 12 12 13 12 12 12 7 5 5 8 4 2 5 4 3 6 10 11
4 4 5 4 3 3 3 6 8 6 5 6 6 7 7 8 9 10 12 11 9 10 10 9 10 11 11 11 12 10 11 10 9 6 3 4 1 2 1 3 6 7 10
3 3 3 3 3 3 4 8 7 5 6 6 5 6 7 8 10 13 13 13 12 9 12 16 16 16 15 14 11 11 9 11 7 4 2 4 2 3 1 2 3 6 9
3 4 4 3 3 4 3 7 6 5 6 5 6 6 10 10 14 13 13 13 13 11 14 14 13 13 13 11 10 6 10 10 8 5 3 4 3 3 3 2 4 5 5
Wind_Direction
180 176 198 191 204 175 200 197 213 216 215 218 225 230 237 239 247 243 245 247 247 238 237 235 229 220 229 226 222 230 214 228 201 183 187 192 184 197 195 191 184 179 172
173 184 198 209 203 191 181 198 198 210 218 217 238 228 237 236 243 235 237 244 257 248 232 237 234 211 218 220 221 230 220 219 211 194 197 186 179 184 189 180 177 174 161
173 187 192 202 198 205 185 199 212 210 220 229 248 233 231 231 236 237 236 252 247 252 258 228 207 212 215 217 224 217 221 226 221 206 210 191 172 178 175 169 171 166 147
178 197 175 147 178 172 185 233 194 208 225 209 237 250 244 252 261 255 245 249 250 244 256 214 201 208 218 224 221 214 214 216 225 217 227 175 178 171 163 143 142 153 141
173 179 166 178 182 157 191 197 202 190 206 227 237 237 244 245 252 253 250 244 249 245 237 219 202 204 209 227 234 222 213 201 217 220 212 174 167 165 160 163 162 150 140
170 176 190 181 151 166 194 190 192 192 222 246 263 266 243 237 233 235 240 249 242 230 240 226 207 217 219 222 232 236 219 212 213 219 196 190 179 175 177 192 155 147 127
180 178 175 157 158 173 190 165 144 205 235 214 265 294 257 233 233 222 229 231 236 220 202 209 214 205 244 234 225 231 232 213 213 214 184 167 169 164 171 161 149 127 128
164 177 164 168 164 149 164 164 184 195 212 184 176 168 307 327 226 212 176 211 227 217 227 210 194 201 224 228 223 217 221 217 222 199 159 158 173 169 185 189 135 125 128
181 168 150 153 151 157 178 175 185 197 196 197 212 159 141 236 279 73 84 267 235 214 230 216 199 200 203 212 224 218 203 203 207 188 168 159 153 158 124 123 123 120 124
149 137 141 144 158 157 167 187 174 168 161 183 198 212 112 140 163 82 31 359 264 206 220 223 203 194 195 198 214 205 193 192 182 171 169 149 140 134 129 135 136 136 145
125 143 148 146 152 150 181 177 165 182 185 165 168 146 162 345 92 100 102 356 50 354 308 226 199 197 198 187 193 203 187 179 179 168 159 150 139 136 135 133 135 131 125
115 137 133 140 148 164 174 188 181 186 191 186 175 184 163 165 205 156 126 138 144 340 83 81 85 128 164 175 196 209 185 179 160 160 149 139 132 134 135 131 135 143 153
130 160 138 153 158 181 188 177 183 201 190 193 191 201 191 187 158 161 123 122 124 112 103 62 123 125 128 120 197 193 191 165 151 140 141 139 138 140 141 145 157 161 155
146 150 160 171 178 178 195 193 195 209 198 207 204 202 199 190 186 163 147 134 120 112 62 91 18 97 140 127 181 174 153 155 142 129 137 138 144 148 148 147 148 138 136
146 160 163 151 172 197 200 184 208 224 207 202 206 203 203 197 184 181 174 153 149 147 136 146 117 34 105 126 113 119 135 141 122 124 129 128 131 129 126 121 119 124 129
135 136 142 169 189 208 205 196 207 210 217 238 196 197 193 186 178 180 177 159 149 133 133 144 88 124 116 78 109 116 121 125 117 114 117 111 103 104 109 107 116 130 133
140 146 162 175 188 218 179 192 213 199 196 231 212 201 197 175 174 172 159 164 142 126 131 105 101 104 99 97 91 98 111 116 115 115 117 116 114 113 118 128 143 128 121
147 153 160 167 210 222 197 202 208 181 208 168 238 175 159 153 155 169 164 172 161 150 131 136 94 82 103 107 101 98 99 107 118 115 114 112 115 114 121 140 124 119 116
148 159 151 210 195 224 286 265 223 200 193 182 202 183 153 148 152 158 139 144 138 126 129 127 104 90 92 116 97 95 102 101 105 105 104 111 113 116 120 110 106 115 118
152 192 190 132 118 76 1 332 277 181 164 156 156 169 162 166 164 153 137 137 133 122 117 116 111 113 113 118 111 114 107 108 112 110 100 105 101 91 101 109 117 121 117
177 157 128 104 85 57 22 353 60 111 126 114 96 139 158 145 144 140 144 146 138 127 125 121 116 121 124 135 132 125 108 110 94 111 111 103 103 103 89 98 115 123 120
155 134 108 111 85 58 337 44 109 112 118 126 132 120 116 117 116 122 126 130 139 140 139 133 133 136 125 125 127 132 122 129 121 93 105 78 96 88 77 78 111 127 124
149 122 112 106 87 64 5 99 108 107 103 103 101 109 102 108 113 112 97 92 84 95 123 143 140 143 133 136 131 127 128 127 118 117 115 86 63 92 37 71 121 121 130
139 122 114 110 97 44 38 106 108 113 92 87 94 103 110 120 124 122 118 111 108 106 115 126 126 131 124 124 123 120 118 106 100 95 104 109 64 86 93 71 113 139 138
139 126 124 123 105 71 80 118 111 99 96 89 90 97 112 121 131 115 112 111 101 86 78 91 99 99 97 100 114 119 127 128 124 134 69 110 147 116 120 129 133 152 152
149 118 114 105 104 108 97 124 112 106 101 90 82 83 89 121 119 119 121 122 117 119 115 110 104 96 108 108 109 133 146 139 131 132 167 105 149 155 165 140 171 174 174